When you browse on this site, cookies collect data to enhance your experience and personalize the content and advertising you see.
Visit our Privacy Policy to learn more. By continuing to use the site, you agree to this use of cookies and data.
  • în România
  • Lista ţărilor
  • Pe 7 zile
  • Temperatura apei
  • Hartă satelitară
  • Meteo pe hartă
  • Widget-uri
  • user-avatar
    Intrare

    Meteo pe oră la San Cristóbal

    Astăzi, 25 Aprilie, Joi

    Timp Temperatura Precipitaţii Vânt Presiune Umiditate
    00:00 +20°C° 0.8 mm 0 m/s 672 mmHg 83%
    01:00 +20°C° 0.8 mm 0 m/s 672 mmHg 83%
    02:00 +20°C° 0.6 mm 0 m/s 672 mmHg 83%
    03:00 +20°C° 0.6 mm 0 m/s 672 mmHg 84%
    04:00 +20°C° 0.6 mm 0 m/s 671 mmHg 84%
    05:00 +20°C° 0.5 mm 0 m/s 672 mmHg 82%
    06:00 +20°C° 0.5 mm 0 m/s 672 mmHg 80%
    07:00 +21°C° 0.5 mm 0 m/s 673 mmHg 79%
    08:00 +25°C° 0.4 mm 1 m/s 673 mmHg 71%
    09:00 +26°C° 0.4 mm 1 m/s 674 mmHg 63%
    10:00 +28°C° 0.4 mm 1 m/s 675 mmHg 55%
    11:00 +29°C° 0.2 mm 1 m/s 675 mmHg 52%
    12:00 +31°C° 0.2 mm 1 m/s 674 mmHg 48%
    13:00 +32°C° 0.2 mm 1 m/s 674 mmHg 45%
    14:00 +31°C° 0.2 mm 1 m/s 673 mmHg 47%
    15:00 +30°C° 0.2 mm 1 m/s 672 mmHg 49%
    16:00 +29°C° 0.2 mm 1 m/s 672 mmHg 52%
    17:00 +28°C° 0.3 mm 1 m/s 672 mmHg 60%
    18:00 +24°C° 0.3 mm 0 m/s 672 mmHg 67%
    19:00 +22°C° 0.3 mm 0 m/s 672 mmHg 75%
    20:00 +22°C° 0.2 mm 0 m/s 672 mmHg 77%
    21:00 +21°C° 0.2 mm 0 m/s 673 mmHg 78%
    22:00 +21°C° 0.2 mm 0 m/s 673 mmHg 80%
    23:00 +21°C° 0.2 mm 0 m/s 673 mmHg 81%

    Mâine, 26 Aprilie, Vineri

    Timp Temperatura Precipitaţii Vânt Presiune Umiditate
    00:00 +21°C° 0.2 mm 0 m/s 673 mmHg 81%
    01:00 +20°C° 0.2 mm 0 m/s 672 mmHg 82%
    02:00 +20°C° 0.3 mm 0 m/s 672 mmHg 82%
    03:00 +20°C° 0.3 mm 0 m/s 672 mmHg 81%
    04:00 +20°C° 0.3 mm 0 m/s 672 mmHg 81%
    05:00 +22°C° 0.9 mm 1 m/s 672 mmHg 80%
    06:00 +23°C° 0.9 mm 1 m/s 672 mmHg 80%
    07:00 +23°C° 0.9 mm 1 m/s 673 mmHg 79%
    08:00 +23°C° 1.5 mm 1 m/s 673 mmHg 78%
    09:00 +24°C° 1.5 mm 1 m/s 673 mmHg 77%
    10:00 +24°C° 1.5 mm 1 m/s 674 mmHg 77%
    11:00 +25°C° 1.2 mm 1 m/s 673 mmHg 75%
    12:00 +25°C° 1.2 mm 1 m/s 673 mmHg 74%
    13:00 +26°C° 1.2 mm 1 m/s 672 mmHg 72%
    14:00 +26°C° 0.7 mm 1 m/s 672 mmHg 72%
    15:00 +25°C° 0.7 mm 1 m/s 671 mmHg 71%
    16:00 +25°C° 0.7 mm 1 m/s 671 mmHg 71%
    17:00 +24°C° 0.8 mm 1 m/s 671 mmHg 75%
    18:00 +23°C° 0.8 mm 1 m/s 671 mmHg 80%
    19:00 +22°C° 0.8 mm 1 m/s 671 mmHg 85%
    20:00 +22°C° 1 mm 1 m/s 672 mmHg 86%
    21:00 +22°C° 1 mm 1 m/s 673 mmHg 86%
    22:00 +22°C° 1 mm 1 m/s 673 mmHg 87%
    23:00 +22°C° 0.8 mm 1 m/s 673 mmHg 87%

    Poimâine, 27 Aprilie, Sâmbătă

    Timp Temperatura Precipitaţii Vânt Presiune Umiditate
    00:00 +22°C° 0.8 mm 1 m/s 672 mmHg 87%
    01:00 +22°C° 0.8 mm 1 m/s 672 mmHg 87%
    02:00 +22°C° 0.6 mm 1 m/s 672 mmHg 86%
    03:00 +21°C° 0.6 mm 1 m/s 671 mmHg 85%
    04:00 +21°C° 0.6 mm 1 m/s 671 mmHg 85%
    05:00 +22°C° 0.8 mm 1 m/s 672 mmHg 81%
    06:00 +23°C° 0.8 mm 1 m/s 672 mmHg 78%
    07:00 +23°C° 0.8 mm 1 m/s 673 mmHg 75%
    08:00 +25°C° 0.8 mm 1 m/s 673 mmHg 70%
    09:00 +26°C° 0.8 mm 1 m/s 674 mmHg 65%
    10:00 +27°C° 0.8 mm 1 m/s 674 mmHg 59%
    11:00 +28°C° 0.5 mm 1 m/s 674 mmHg 56%
    12:00 +30°C° 0.5 mm 1 m/s 673 mmHg 53%
    13:00 +31°C° 0.5 mm 1 m/s 673 mmHg 50%
    14:00 +30°C° 0.8 mm 1 m/s 672 mmHg 53%
    15:00 +29°C° 0.8 mm 1 m/s 672 mmHg 56%
    16:00 +28°C° 0.8 mm 1 m/s 671 mmHg 59%
    17:00 +26°C° 1.5 mm 1 m/s 671 mmHg 67%
    18:00 +25°C° 1.5 mm 1 m/s 671 mmHg 76%
    19:00 +23°C° 1.5 mm 1 m/s 671 mmHg 85%
    20:00 +23°C° 1.7 mm 1 m/s 672 mmHg 87%
    21:00 +22°C° 1.7 mm 1 m/s 672 mmHg 88%
    22:00 +22°C° 1.7 mm 1 m/s 673 mmHg 90%
    23:00 +22°C° 2.4 mm 1 m/s 672 mmHg 91%

    28 Aprilie, Duminică

    Timp Temperatura Precipitaţii Vânt Presiune Umiditate
    00:00 +22°C° 2.4 mm 1 m/s 672 mmHg 92%
    01:00 +21°C° 2.4 mm 1 m/s 671 mmHg 93%
    02:00 +21°C° 0.6 mm 1 m/s 671 mmHg 92%
    03:00 +21°C° 0.6 mm 1 m/s 671 mmHg 91%
    04:00 +21°C° 0.6 mm 1 m/s 671 mmHg 90%
    05:00 +21°C° 0.1 mm 1 m/s 672 mmHg 87%
    06:00 +22°C° 0.1 mm 1 m/s 672 mmHg 84%
    07:00 +22°C° 0.1 mm 1 m/s 673 mmHg 80%
    08:00 +24°C° 0.1 mm 2 m/s 673 mmHg 70%
    09:00 +27°C° 0.1 mm 2 m/s 674 mmHg 60%
    10:00 +29°C° 0.1 mm 2 m/s 674 mmHg 50%
    11:00 +29°C° 0.3 mm 2 m/s 674 mmHg 52%
    12:00 +28°C° 0.3 mm 2 m/s 673 mmHg 54%
    13:00 +28°C° 0.3 mm 2 m/s 672 mmHg 56%
    14:00 +28°C° 0.5 mm 2 m/s 672 mmHg 57%
    15:00 +28°C° 0.5 mm 1 m/s 671 mmHg 58%
    16:00 +28°C° 0.5 mm 1 m/s 671 mmHg 58%
    17:00 +26°C° 0.5 mm 1 m/s 671 mmHg 66%
    18:00 +22°C° 0.5 mm 0 m/s 671 mmHg 74%
    19:00 +21°C° 0.5 mm 0 m/s 671 mmHg 81%
    20:00 +20°C° 0.1 mm 0 m/s 672 mmHg 81%
    21:00 +22°C° 0.1 mm 1 m/s 672 mmHg 81%
    22:00 +22°C° 0.1 mm 1 m/s 672 mmHg 80%
    23:00 +22°C° 0.1 mm 1 m/s 672 mmHg 79%

    29 Aprilie, Luni

    Timp Temperatura Precipitaţii Vânt Presiune Umiditate
    00:00 +22°C° 0.1 mm 1 m/s 672 mmHg 79%
    01:00 +22°C° 0.1 mm 1 m/s 671 mmHg 78%
    02:00 +21°C° 0 mm 1 m/s 671 mmHg 76%
    03:00 +21°C° 0 mm 1 m/s 671 mmHg 74%
    04:00 +21°C° 0 mm 1 m/s 671 mmHg 73%
    05:00 +22°C° 0 mm 1 m/s 671 mmHg 67%
    06:00 +23°C° 0 mm 1 m/s 672 mmHg 61%
    07:00 +24°C° 0 mm 1 m/s 673 mmHg 55%
    08:00 +26°C° 0 mm 2 m/s 673 mmHg 50%
    09:00 +28°C° 0 mm 2 m/s 674 mmHg 45%
    10:00 +30°C° 0 mm 2 m/s 674 mmHg 40%
    11:00 +31°C° 0 mm 2 m/s 674 mmHg 40%
    12:00 +31°C° 0 mm 2 m/s 673 mmHg 39%
    13:00 +32°C° 0 mm 2 m/s 673 mmHg 39%
    14:00 +31°C° 0 mm 2 m/s 672 mmHg 41%
    15:00 +30°C° 0 mm 2 m/s 672 mmHg 43%
    16:00 +30°C° 0 mm 1 m/s 671 mmHg 44%
    17:00 +27°C° 0.1 mm 1 m/s 671 mmHg 51%
    18:00 +25°C° 0.1 mm 1 m/s 671 mmHg 58%
    19:00 +23°C° 0.1 mm 1 m/s 671 mmHg 66%
    20:00 +23°C° 0.1 mm 1 m/s 672 mmHg 65%
    21:00 +23°C° 0.1 mm 1 m/s 672 mmHg 64%
    22:00 +22°C° 0.1 mm 1 m/s 672 mmHg 63%
    23:00 +22°C° 0.2 mm 1 m/s 672 mmHg 63%

    30 Aprilie, Marţi

    Timp Temperatura Precipitaţii Vânt Presiune Umiditate
    00:00 +22°C° 0.2 mm 1 m/s 672 mmHg 62%
    01:00 +22°C° 0.2 mm 1 m/s 671 mmHg 62%
    02:00 +22°C° 0.2 mm 1 m/s 671 mmHg 63%
    03:00 +22°C° 0.2 mm 1 m/s 671 mmHg 64%
    04:00 +22°C° 0.2 mm 1 m/s 671 mmHg 64%
    05:00 +22°C° 0.1 mm 1 m/s 672 mmHg 62%
    06:00 +23°C° 0.1 mm 1 m/s 672 mmHg 60%
    07:00 +24°C° 0.1 mm 2 m/s 673 mmHg 59%
    08:00 +25°C° 0.1 mm 2 m/s 673 mmHg 56%
    09:00 +26°C° 0.1 mm 2 m/s 673 mmHg 53%
    10:00 +28°C° 0.1 mm 3 m/s 674 mmHg 50%
    11:00 +28°C° 0.1 mm 2 m/s 673 mmHg 48%
    12:00 +29°C° 0.1 mm 2 m/s 673 mmHg 46%
    13:00 +29°C° 0.1 mm 2 m/s 672 mmHg 44%
    14:00 +29°C° 0.1 mm 2 m/s 672 mmHg 45%
    15:00 +29°C° 0.1 mm 2 m/s 671 mmHg 45%
    16:00 +29°C° 0.1 mm 2 m/s 671 mmHg 46%
    17:00 +27°C° 0 mm 1 m/s 671 mmHg 51%
    18:00 +25°C° 0 mm 1 m/s 671 mmHg 55%
    19:00 +23°C° 0 mm 1 m/s 671 mmHg 60%
    20:00 +23°C° 0.1 mm 1 m/s 672 mmHg 60%
    21:00 +23°C° 0.1 mm 1 m/s 672 mmHg 60%
    22:00 +22°C° 0.1 mm 1 m/s 672 mmHg 60%
    23:00 +22°C° 0.1 mm 1 m/s 672 mmHg 59%
    Arată mai mult